Location: Bern�tre
(50.1974°N, 2.0915°E)
Time: 06:06:27
(UTC+00:00)

Cosmos 1025 Rocket - Pass Details

Date: 18 September 2020
Orbit: 595 x 617 km, 82.5° (Epoch: 27 October)

Event Time Altitude Azimuth Distance (km) Brightness Sun altitude
Rises 18:44:51 0° 355° (N) 2,886 6.7 -8.3°
Reaches altitude 10° 18:47:14 10° 4° (N) 1,980 5.8 -8.7°
Maximum altitude 18:51:18 37° 72° (ENE) 969 3.6 -9.3°
Drops below altitude 10° 18:55:22 10° 141° (SE) 1,975 5.2 -9.9°
Enters shadow 18:56:08 - 144° (SE) 2,260 5.5 -10.0°
